QPF
0.01 0.01 0.01 0.00 0.01 0.01 0.01 0.01 0.01 0.01 0.00 0.01 0.01 0.01 0.02 0.03 0.03 0.02 0.03 0.02 0.02 0.02 0.02 0.02 0.02 0.02 0.02 0.02 0.01 0.01 0.01 0.01 0.01 0.01 0.01 0.01 0.01 0.01 0.01 0.02 0.02 0.02 0.02 0.02
0.01 0.01 0.01 0.01 0.01 0.01 0.01 0.01 0.01 0.01 0.00 0.01 0.01 0.02 0.03 0.03 0.03 0.04 0.04 0.03 0.02 0.03 0.03 0.02 0.01 0.01 0.01 0.02 0.01 0.01 0.01 0.01 0.01 0.01 0.01 0.01 0.01 0.02 0.02 0.02 0.02 0.02 0.03 0.03
0.01 0.00 0.01 0.01 0.01 0.01 0.01 0.01 0.02 0.01 0.01 0.01 0.01 0.02 0.02 0.03 0.04 0.07 0.07 0.04 0.03 0.04 0.04 0.03 0.01 0.01 0.01 0.01 0.01 0.01 0.01 0.01 0.01 0.01 0.01 0.01 0.01 0.02 0.02 0.02 0.02 0.01 0.02 0.01
0.01 0.00 0.01 0.01 0.01 0.01 0.01 0.01 0.01 0.01 0.01 0.01 0.01 0.01 0.02 0.02 0.02 0.04 0.07 0.05 0.03 0.03 0.04 0.02 0.01 0.01 0.01 0.01 0.01 0.01 0.01 0.01 0.01 0.01 0.01 0.02 0.02 0.02 0.02 0.02 0.02 0.02 0.02 0.01
0.01 0.01 0.01 0.01 0.01 0.01 0.01 0.01 0.01 0.01 0.01 0.01 0.02 0.02 0.02 0.03 0.02 0.02 0.06 0.06 0.03 0.02 0.01 0.01 0.01 0.00 0.01 0.01 0.01 0.01 0.01 0.01 0.01 0.02 0.02 0.02 0.02 0.02 0.02 0.02 0.02 0.02 0.02 0.01
0.01 0.01 0.01 0.01 0.01 0.01 0.02 0.02 0.01 0.02 0.03 0.03 0.03 0.03 0.02 0.02 0.01 0.02 0.03 0.03 0.03 0.02 0.01 0.01 0.01 0.00 0.00 0.01 0.01 0.01 0.01 0.02 0.03 0.03 0.02 0.02 0.02 0.02 0.02 0.02 0.02 0.01 0.01 0.01
0.01 0.01 0.01 0.01 0.01 0.02 0.03 0.02 0.02 0.03 0.04 0.05 0.04 0.03 0.02 0.02 0.02 0.02 0.02 0.02 0.02 0.01 0.01 0.01 0.01 0.00 0.00 0.01 0.01 0.02 0.02 0.02 0.03 0.05 0.04 0.04 0.03 0.02 0.02 0.02 0.02 0.02 0.02 0.02
0.01 0.02 0.02 0.01 0.02 0.04 0.04 0.03 0.03 0.04 0.04 0.05 0.06 0.04 0.03 0.02 0.03 0.03 0.03 0.02 0.02 0.01 0.02 0.01 0.01 0.00 0.00 0.01 0.01 0.03 0.03 0.02 0.02 0.03 0.04 0.05 0.04 0.03 0.03 0.02 0.02 0.02 0.02 0.02
0.01 0.01 0.01 0.01 0.02 0.02 0.03 0.04 0.04 0.05 0.04 0.05 0.06 0.05 0.03 0.03 0.04 0.04 0.03 0.03 0.03 0.03 0.02 0.01 0.01 0.00 0.00 0.01 0.01 0.02 0.04 0.02 0.02 0.02 0.03 0.05 0.05 0.04 0.03 0.03 0.02 0.02 0.02 0.01
0.01 0.01 0.01 0.02 0.02 0.02 0.03 0.04 0.04 0.05 0.04 0.05 0.04 0.04 0.03 0.04 0.04 0.04 0.03 0.03 0.03 0.03 0.02 0.01 0.01 0.01 0.01 0.01 0.01 0.01 0.02 0.02 0.01 0.02 0.02 0.03 0.03 0.02 0.02 0.02 0.01 0.01 0.01 0.01
0.02 0.02 0.02 0.01 0.01 0.02 0.02 0.03 0.04 0.04 0.04 0.04 0.03 0.03 0.04 0.05 0.04 0.03 0.03 0.03 0.03 0.03 0.03 0.02 0.01 0.01 0.01 0.01 0.01 0.01 0.01 0.01 0.01 0.00 0.00 0.01 0.01 0.01 0.01 0.01 0.01 0.00 0.00 0.00
0.01 0.01 0.02 0.01 0.01 0.02 0.02 0.02 0.03 0.04 0.05 0.04 0.02 0.03 0.04 0.04 0.03 0.03 0.03 0.02 0.02 0.02 0.03 0.02 0.02 0.02 0.01 0.01 0.02 0.01 0.01 0.01 0.01 0.01 0.00 0.00 0.00 0.01 0.00 0.00 0.00 0.00 0.00 0.00
0.01 0.01 0.01 0.01 0.01 0.02 0.01 0.01 0.02 0.03 0.04 0.03 0.01 0.02 0.02 0.03 0.02 0.02 0.02 0.02 0.02 0.01 0.02 0.02 0.01 0.01 0.01 0.01 0.01 0.01 0.02 0.01 0.01 0.01 0.01 0.01 0.01 0.01 0.01 0.00 0.00 0.00 0.00 0.00
0.01 0.01 0.01 0.01 0.01 0.01 0.01 0.00 0.01 0.02 0.03 0.02 0.01 0.02 0.01 0.01 0.01 0.02 0.02 0.02 0.02 0.01 0.01 0.01 0.01 0.01 0.01 0.01 0.01 0.01 0.01 0.02 0.02 0.01 0.01 0.01 0.01 0.01 0.01 0.01 0.00 0.00 0.00 0.00
0.01 0.01 0.01 0.01 0.01 0.01 0.00 0.00 0.00 0.01 0.01 0.01 0.02 0.02 0.01 0.01 0.01 0.02 0.02 0.02 0.02 0.01 0.01 0.01 0.01 0.01 0.01 0.00 0.00 0.01 0.01 0.02 0.02 0.02 0.02 0.01 0.01 0.01 0.01 0.01 0.00 0.00 0.00 0.00
0.01 0.01 0.01 0.01 0.00 0.00 0.00 0.00 0.00 0.01 0.01 0.01 0.01 0.01 0.01 0.01 0.01 0.02 0.02 0.01 0.00 0.00 0.00 0.00 0.01 0.01 0.00 0.00 0.00 0.00 0.01 0.01 0.02 0.02 0.02 0.01 0.01 0.01 0.01 0.01 0.01 0.01 0.01 0.01
0.02 0.01 0.01 0.00 0.00 0.00 0.00 0.00 0.00 0.01 0.01 0.01 0.01 0.01 0.01 0.02 0.02 0.01 0.01 0.00 0.00 0.00 0.00 0.00 0.01 0.00 0.00 0.00 0.01 0.01 0.01 0.01 0.01 0.02 0.01 0.01 0.01 0.01 0.00 0.00 0.01 0.01 0.01 0.02
0.02 0.01 0.01 0.01 0.01 0.01 0.01 0.01 0.01 0.01 0.01 0.01 0.01 0.02 0.02 0.02 0.02 0.01 0.01 0.00 0.00 0.00 0.00 0.00 0.00 0.00 0.00 0.00 0.01 0.01 0.01 0.00 0.01 0.01 0.01 0.01 0.01 0.01 0.00 0.01 0.01 0.01 0.01 0.01
0.03 0.02 0.01 0.01 0.01 0.01 0.01 0.01 0.01 0.01 0.02 0.02 0.02 0.01 0.01 0.01 0.01 0.01 0.00 0.00 0.00 0.00 0.00 0.00 0.00 0.00 0.00 0.01 0.01 0.00 0.00 0.00 0.01 0.01 0.01 0.01 0.00 0.00 0.01 0.01 0.01 0.01 0.01 0.00
0.02 0.01 0.01 0.01 0.00 0.00 0.00 0.00 0.01 0.01 0.02 0.02 0.01 0.01 0.01 0.00 0.00 0.00 0.00 0.00 0.00 0.00 0.00 0.00 0.00 0.00 0.01 0.01 0.01 0.00 0.01 0.01 0.01 0.01 0.01 0.01 0.00 0.00 0.01 0.01 0.01 0.01 0.00 0.00
0.01 0.01 0.00 0.00 0.00 0.00 0.00 0.00 0.01 0.01 0.02 0.01 0.01 0.01 0.01 0.01 0.01 0.00 0.00 0.00 0.00 0.00 0.00 0.00 0.00 0.00 0.00 0.01 0.01 0.00 0.01 0.01 0.01 0.00 0.00 0.00 0.00 0.00 0.00 0.00 0.01 0.00 0.00 0.00
0.01 0.01 0.01 0.01 0.00 0.00 0.00 0.00 0.01 0.01 0.01 0.01 0.01 0.01 0.01 0.01 0.01 0.01 0.00 0.00 0.00 0.00 0.00 0.00 0.00 0.00 0.00 0.01 0.00 0.00 0.00 0.00 0.00 0.00 0.00 0.00 0.00 0.00 0.00 0.00 0.00 0.00 0.00 0.00
0.02 0.01 0.01 0.01 0.01 0.00 0.00 0.01 0.02 0.01 0.01 0.01 0.01 0.01 0.01 0.01 0.01 0.01 0.00 0.00 0.00 0.00 0.00 0.00 0.00 0.00 0.00 0.00 0.00 0.00 0.00 0.00 0.00 0.00 0.00 0.00 0.00 0.00 0.00 0.00 0.00 0.00 0.00 0.00
0.02 0.02 0.02 0.01 0.01 0.01 0.01 0.01 0.01 0.01 0.01 0.00 0.00 0.01 0.01 0.01 0.01 0.01 0.00 0.00 0.00 0.00 0.00 0.00 0.00 0.00 0.00 0.00 0.00 0.00 0.00 0.00 0.00 0.00 0.00 0.00 0.00 0.00 0.00 0.00 0.01 0.00 0.00 0.00
0.01 0.01 0.01 0.01 0.01 0.02 0.02 0.01 0.01 0.01 0.00 0.00 0.00 0.00 0.00 0.01 0.01 0.00 0.00 0.00 0.00 0.00 0.00 0.00 0.00 0.00 0.00 0.00 0.00 0.00 0.00 0.00 0.00 0.00 0.00 0.00 0.00 0.00 0.00 0.00 0.01 0.00 0.00 0.00
0.02 0.02 0.02 0.01 0.01 0.02 0.01 0.01 0.01 0.01 0.00 0.00 0.00 0.00 0.00 0.00 0.00 0.00 0.00 0.00 0.00 0.00 0.00 0.00 0.00 0.00 0.00 0.00 0.00 0.00 0.00 0.00 0.00 0.00 0.00 0.00 0.00 0.00 0.00 0.00 0.00 0.00 0.00 0.00
0.03 0.04 0.03 0.02 0.01 0.02 0.01 0.01 0.01 0.01 0.00 0.00 0.00 0.00 0.00 0.00 0.00 0.00 0.00 0.00 0.00 0.00 0.00 0.00 0.00 0.00 0.00 0.00 0.00 0.00 0.00 0.01 0.01 0.00 0.00 0.00 0.00 0.00 0.00 0.00 0.00 0.00 0.00 0.00
MSLP
1017.49 1017.36 1017.35 1017.42 1017.53 1017.60 1017.55 1017.32 1016.86 1016.16 1015.25 1014.19 1013.09 1012.05 1011.16 1010.50 1010.12 1010.00 1010.14 1010.46 1010.91 1011.40 1011.87 1012.30 1012.66 1012.95 1013.20 1013.42 1013.63 1013.84 1014.04 1014.23 1014.39 1014.50 1014.54 1014.53 1014.45 1014.33 1014.19 1014.05 1013.92 1013.82 1013.74 1013.68
1017.65 1017.49 1017.41 1017.38 1017.38 1017.34 1017.20 1016.92 1016.45 1015.80 1014.99 1014.07 1013.12 1012.23 1011.46 1010.88 1010.52 1010.39 1010.46 1010.70 1011.03 1011.42 1011.82 1012.19 1012.53 1012.82 1013.09 1013.34 1013.58 1013.82 1014.04 1014.23 1014.38 1014.48 1014.51 1014.48 1014.41 1014.29 1014.16 1014.03 1013.90 1013.80 1013.71 1013.64
1017.90 1017.72 1017.59 1017.50 1017.42 1017.30 1017.10 1016.79 1016.33 1015.73 1015.01 1014.20 1013.37 1012.58 1011.90 1011.36 1011.00 1010.82 1010.81 1010.94 1011.17 1011.46 1011.78 1012.10 1012.41 1012.71 1012.99 1013.27 1013.54 1013.79 1014.02 1014.21 1014.36 1014.45 1014.48 1014.45 1014.38 1014.28 1014.16 1014.04 1013.92 1013.82 1013.72 1013.63
1018.28 1018.08 1017.92 1017.78 1017.64 1017.47 1017.24 1016.91 1016.47 1015.91 1015.25 1014.53 1013.79 1013.07 1012.43 1011.91 1011.53 1011.29 1011.21 1011.24 1011.38 1011.59 1011.84 1012.12 1012.41 1012.71 1013.00 1013.29 1013.57 1013.83 1014.05 1014.23 1014.37 1014.45 1014.48 1014.45 1014.39 1014.30 1014.19 1014.08 1013.97 1013.86 1013.75 1013.63
1018.77 1018.55 1018.35 1018.17 1018.00 1017.79 1017.53 1017.19 1016.77 1016.24 1015.64 1014.97 1014.29 1013.62 1013.00 1012.48 1012.08 1011.80 1011.65 1011.62 1011.69 1011.84 1012.05 1012.31 1012.59 1012.88 1013.18 1013.46 1013.73 1013.98 1014.18 1014.34 1014.45 1014.51 1014.52 1014.49 1014.43 1014.34 1014.24 1014.13 1014.02 1013.89 1013.76 1013.61
1019.29 1019.03 1018.80 1018.58 1018.37 1018.14 1017.86 1017.53 1017.11 1016.61 1016.04 1015.42 1014.77 1014.13 1013.53 1013.01 1012.59 1012.29 1012.10 1012.04 1012.08 1012.20 1012.40 1012.65 1012.92 1013.22 1013.51 1013.78 1014.03 1014.24 1014.40 1014.52 1014.59 1014.61 1014.60 1014.55 1014.48 1014.39 1014.29 1014.17 1014.04 1013.90 1013.73 1013.55
1019.75 1019.43 1019.15 1018.90 1018.66 1018.40 1018.12 1017.78 1017.38 1016.90 1016.36 1015.76 1015.14 1014.52 1013.94 1013.42 1013.01 1012.70 1012.51 1012.44 1012.48 1012.62 1012.83 1013.08 1013.37 1013.66 1013.94 1014.19 1014.40 1014.57 1014.68 1014.75 1014.76 1014.74 1014.69 1014.62 1014.53 1014.42 1014.30 1014.17 1014.01 1013.84 1013.64 1013.42
1020.04 1019.67 1019.34 1019.04 1018.77 1018.50 1018.21 1017.87 1017.47 1017.01 1016.48 1015.91 1015.30 1014.71 1014.14 1013.65 1013.25 1012.96 1012.80 1012.76 1012.83 1013.00 1013.24 1013.52 1013.82 1014.12 1014.39 1014.62 1014.79 1014.91 1014.97 1014.97 1014.94 1014.87 1014.77 1014.66 1014.54 1014.41 1014.26 1014.10 1013.92 1013.71 1013.47 1013.21
1020.12 1019.69 1019.31 1018.97 1018.67 1018.38 1018.08 1017.74 1017.35 1016.89 1016.37 1015.81 1015.22 1014.64 1014.11 1013.64 1013.27 1013.02 1012.90 1012.91 1013.03 1013.25 1013.54 1013.86 1014.19 1014.50 1014.76 1014.97 1015.12 1015.19 1015.20 1015.16 1015.07 1014.96 1014.82 1014.67 1014.51 1014.35 1014.17 1013.97 1013.75 1013.50 1013.22 1012.92
1019.99 1019.50 1019.07 1018.70 1018.37 1018.06 1017.74 1017.39 1017.00 1016.54 1016.02 1015.46 1014.89 1014.32 1013.81 1013.38 1013.05 1012.85 1012.79 1012.86 1013.04 1013.32 1013.66 1014.03 1014.40 1014.73 1015.00 1015.20 1015.33 1015.37 1015.35 1015.27 1015.15 1015.00 1014.82 1014.64 1014.45 1014.24 1014.02 1013.78 1013.52 1013.22 1012.91 1012.57
1019.68 1019.15 1018.68 1018.28 1017.92 1017.58 1017.24 1016.87 1016.45 1015.98 1015.45 1014.89 1014.31 1013.77 1013.28 1012.88 1012.60 1012.46 1012.46 1012.59 1012.85 1013.19 1013.59 1014.01 1014.42 1014.78 1015.07 1015.27 1015.40 1015.43 1015.40 1015.30 1015.16 1014.99 1014.79 1014.58 1014.35 1014.11 1013.85 1013.56 1013.25 1012.92 1012.56 1012.18
1019.28 1018.72 1018.22 1017.78 1017.39 1017.02 1016.63 1016.22 1015.76 1015.25 1014.70 1014.12 1013.55 1013.01 1012.55 1012.19 1011.96 1011.88 1011.94 1012.15 1012.47 1012.88 1013.34 1013.81 1014.26 1014.65 1014.97 1015.20 1015.34 1015.39 1015.36 1015.27 1015.12 1014.94 1014.73 1014.50 1014.25 1013.97 1013.67 1013.35 1012.99 1012.61 1012.21 1011.80
1018.86 1018.27 1017.75 1017.28 1016.84 1016.42 1015.97 1015.50 1014.99 1014.43 1013.84 1013.24 1012.65 1012.13 1011.69 1011.37 1011.20 1011.18 1011.31 1011.58 1011.97 1012.45 1012.96 1013.48 1013.97 1014.41 1014.76 1015.02 1015.18 1015.26 1015.25 1015.18 1015.05 1014.88 1014.67 1014.43 1014.16 1013.86 1013.53 1013.16 1012.77 1012.34 1011.91 1011.46
1018.45 1017.86 1017.31 1016.80 1016.30 1015.81 1015.29 1014.74 1014.15 1013.53 1012.89 1012.26 1011.67 1011.16 1010.75 1010.49 1010.37 1010.42 1010.62 1010.96 1011.41 1011.94 1012.51 1013.07 1013.60 1014.07 1014.46 1014.76 1014.96 1015.07 1015.10 1015.06 1014.97 1014.82 1014.62 1014.39 1014.11 1013.80 1013.44 1013.04 1012.61 1012.15 1011.68 1011.20
1018.06 1017.46 1016.89 1016.32 1015.76 1015.18 1014.57 1013.92 1013.25 1012.56 1011.88 1011.23 1010.64 1010.15 1009.79 1009.58 1009.53 1009.64 1009.91 1010.32 1010.83 1011.41 1012.01 1012.62 1013.18 1013.68 1014.11 1014.44 1014.68 1014.84 1014.91 1014.92 1014.86 1014.75 1014.58 1014.36 1014.09 1013.77 1013.40 1012.99 1012.53 1012.05 1011.54 1011.03
1017.66 1017.04 1016.43 1015.81 1015.16 1014.49 1013.78 1013.04 1012.29 1011.54 1010.81 1010.15 1009.58 1009.12 1008.82 1008.67 1008.70 1008.89 1009.23 1009.69 1010.25 1010.87 1011.51 1012.13 1012.72 1013.25 1013.70 1014.07 1014.35 1014.56 1014.68 1014.74 1014.73 1014.66 1014.53 1014.34 1014.09 1013.78 1013.41 1012.99 1012.52 1012.02 1011.49 1010.96
1017.19 1016.55 1015.90 1015.20 1014.47 1013.70 1012.90 1012.07 1011.25 1010.44 1009.70 1009.04 1008.50 1008.10 1007.86 1007.79 1007.90 1008.16 1008.56 1009.08 1009.68 1010.33 1010.98 1011.63 1012.23 1012.77 1013.25 1013.65 1013.97 1014.22 1014.40 1014.51 1014.56 1014.54 1014.46 1014.30 1014.08 1013.79 1013.44 1013.02 1012.55 1012.04 1011.50 1010.95
1016.60 1015.93 1015.22 1014.46 1013.64 1012.78 1011.89 1010.99 1010.11 1009.28 1008.54 1007.90 1007.41 1007.08 1006.92 1006.94 1007.12 1007.46 1007.92 1008.48 1009.11 1009.77 1010.44 1011.09 1011.70 1012.25 1012.75 1013.17 1013.53 1013.83 1014.06 1014.22 1014.33 1014.36 1014.33 1014.21 1014.03 1013.77 1013.43 1013.03 1012.57 1012.06 1011.51 1010.94
1015.87 1015.16 1014.38 1013.54 1012.65 1011.71 1010.75 1009.81 1008.90 1008.07 1007.35 1006.77 1006.34 1006.09 1006.02 1006.12 1006.38 1006.78 1007.29 1007.89 1008.54 1009.21 1009.88 1010.52 1011.13 1011.69 1012.20 1012.65 1013.04 1013.38 1013.66 1013.87 1014.03 1014.11 1014.12 1014.05 1013.89 1013.66 1013.35 1012.96 1012.51 1012.01 1011.47 1010.90
1015.01 1014.23 1013.39 1012.48 1011.52 1010.53 1009.53 1008.56 1007.65 1006.85 1006.17 1005.65 1005.31 1005.15 1005.17 1005.35 1005.68 1006.14 1006.69 1007.31 1007.97 1008.64 1009.30 1009.95 1010.55 1011.12 1011.64 1012.11 1012.53 1012.91 1013.22 1013.48 1013.67 1013.79 1013.83 1013.79 1013.66 1013.45 1013.15 1012.78 1012.34 1011.85 1011.31 1010.74
1014.04 1013.20 1012.30 1011.32 1010.31 1009.27 1008.25 1007.29 1006.40 1005.64 1005.03 1004.59 1004.34 1004.27 1004.37 1004.63 1005.03 1005.53 1006.12 1006.75 1007.42 1008.09 1008.75 1009.39 1010.00 1010.57 1011.10 1011.59 1012.04 1012.44 1012.78 1013.07 1013.28 1013.42 1013.48 1013.44 1013.32 1013.11 1012.82 1012.45 1012.02 1011.53 1011.01 1010.45
1013.01 1012.11 1011.15 1010.12 1009.07 1008.01 1006.99 1006.04 1005.20 1004.50 1003.96 1003.61 1003.44 1003.46 1003.64 1003.98 1004.43 1004.98 1005.59 1006.24 1006.92 1007.59 1008.25 1008.89 1009.50 1010.08 1010.62 1011.13 1011.59 1012.01 1012.37 1012.66 1012.87 1013.01 1013.05 1013.00 1012.86 1012.64 1012.34 1011.96 1011.53 1011.06 1010.54 1010.01
1011.97 1011.01 1009.99 1008.93 1007.85 1006.79 1005.78 1004.87 1004.08 1003.44 1002.99 1002.72 1002.64 1002.74 1002.99 1003.39 1003.89 1004.48 1005.12 1005.79 1006.47 1007.15 1007.82 1008.46 1009.08 1009.67 1010.23 1010.74 1011.21 1011.63 1011.98 1012.26 1012.45 1012.56 1012.57 1012.48 1012.31 1012.05 1011.72 1011.34 1010.90 1010.43 1009.94 1009.44
1010.95 1009.94 1008.88 1007.79 1006.70 1005.64 1004.66 1003.78 1003.05 1002.49 1002.11 1001.92 1001.92 1002.09 1002.42 1002.87 1003.42 1004.04 1004.71 1005.40 1006.10 1006.79 1007.47 1008.12 1008.75 1009.34 1009.90 1010.42 1010.88 1011.28 1011.61 1011.85 1012.01 1012.07 1012.02 1011.89 1011.67 1011.37 1011.01 1010.60 1010.17 1009.71 1009.25 1008.80
1009.95 1008.91 1007.82 1006.72 1005.63 1004.59 1003.63 1002.80 1002.13 1001.63 1001.32 1001.21 1001.28 1001.52 1001.91 1002.42 1003.01 1003.67 1004.37 1005.08 1005.80 1006.50 1007.18 1007.84 1008.47 1009.06 1009.61 1010.12 1010.56 1010.93 1011.22 1011.42 1011.52 1011.52 1011.42 1011.23 1010.95 1010.62 1010.23 1009.82 1009.39 1008.96 1008.54 1008.14
1008.97 1007.92 1006.82 1005.72 1004.64 1003.62 1002.71 1001.93 1001.31 1000.87 1000.63 1000.58 1000.72 1001.03 1001.47 1002.02 1002.66 1003.35 1004.07 1004.81 1005.53 1006.25 1006.93 1007.59 1008.21 1008.78 1009.31 1009.78 1010.19 1010.51 1010.75 1010.90 1010.94 1010.89 1010.74 1010.50 1010.19 1009.83 1009.44 1009.03 1008.62 1008.23 1007.87 1007.54
1008.00 1006.96 1005.88 1004.79 1003.73 1002.75 1001.88 1001.15 1000.58 1000.21 1000.03 1000.05 1000.25 1000.61 1001.10 1001.70 1002.37 1003.09 1003.83 1004.57 1005.30 1006.01 1006.68 1007.31 1007.90 1008.45 1008.93 1009.36 1009.71 1009.98 1010.17 1010.26 1010.26 1010.16 1009.98 1009.72 1009.41 1009.05 1008.68 1008.30 1007.94 1007.60 1007.31 1007.06
Thickness
5672 5678 5678 5677 5678 5678 5671 5666 5660 5669 5673 5681 5684 5684 5683 5680 5675 5672 5667 5664 5660 5656 5653 5649 5646 5644 5641 5639 5636 5633 5629 5624 5621 5617 5613 5611 5609 5606 5603 5601 5599 5597 5595 5592
5667 5676 5675 5673 5677 5677 5675 5673 5669 5669 5671 5681 5682 5680 5677 5675 5671 5668 5665 5661 5658 5654 5650 5646 5643 5640 5637 5635 5633 5629 5625 5621 5618 5614 5611 5609 5606 5603 5601 5598 5596 5594 5592 5589
5650 5662 5665 5659 5670 5672 5671 5671 5667 5661 5668 5675 5673 5672 5671 5670 5667 5664 5662 5659 5655 5651 5647 5643 5640 5637 5634 5632 5629 5626 5622 5619 5616 5612 5609 5606 5604 5601 5598 5596 5593 5591 5589 5587
5638 5647 5643 5660 5676 5674 5669 5667 5666 5665 5666 5668 5669 5668 5668 5666 5663 5660 5659 5656 5652 5647 5643 5640 5638 5635 5632 5629 5626 5623 5619 5616 5614 5610 5608 5604 5601 5599 5596 5593 5591 5588 5586 5584
5629 5630 5640 5659 5667 5665 5659 5658 5662 5661 5662 5662 5662 5662 5662 5663 5661 5659 5656 5653 5649 5645 5642 5638 5635 5632 5628 5625 5622 5619 5616 5613 5611 5608 5605 5602 5600 5597 5594 5591 5588 5586 5584 5582
5624 5623 5625 5648 5662 5666 5659 5648 5657 5656 5654 5653 5653 5647 5653 5657 5657 5654 5651 5648 5645 5642 5638 5635 5632 5629 5625 5622 5619 5617 5615 5612 5609 5607 5604 5601 5598 5596 5593 5589 5587 5584 5582 5580
5617 5615 5627 5648 5655 5655 5636 5638 5650 5650 5648 5647 5646 5646 5650 5652 5652 5649 5646 5643 5641 5638 5635 5633 5630 5626 5623 5621 5618 5617 5614 5611 5609 5606 5603 5600 5597 5594 5591 5588 5585 5583 5581 5579
5610 5609 5621 5645 5643 5635 5634 5643 5645 5645 5645 5644 5645 5647 5647 5647 5646 5644 5641 5639 5638 5635 5633 5630 5627 5624 5622 5619 5618 5615 5613 5610 5608 5605 5603 5600 5596 5593 5590 5586 5583 5581 5580 5578
5612 5618 5632 5636 5634 5637 5637 5637 5641 5641 5643 5642 5641 5642 5642 5641 5641 5639 5637 5636 5634 5633 5630 5627 5625 5623 5621 5619 5617 5614 5611 5608 5606 5603 5600 5598 5595 5591 5589 5586 5583 5581 5578 5577
5611 5621 5628 5632 5634 5635 5636 5637 5639 5639 5639 5639 5637 5638 5637 5636 5636 5635 5634 5633 5632 5629 5628 5625 5624 5623 5621 5619 5616 5612 5609 5606 5604 5601 5599 5597 5594 5591 5588 5586 5583 5582 5579 5578
5608 5618 5624 5630 5630 5632 5634 5635 5635 5636 5636 5636 5635 5634 5634 5633 5633 5633 5632 5632 5630 5628 5626 5625 5623 5622 5621 5618 5615 5611 5608 5605 5603 5600 5598 5596 5593 5591 5589 5588 5585 5582 5581 5578
5606 5617 5615 5623 5629 5630 5629 5631 5632 5632 5633 5634 5634 5633 5633 5632 5632 5631 5632 5631 5628 5626 5625 5624 5623 5621 5620 5618 5615 5611 5608 5605 5602 5599 5597 5595 5593 5591 5591 5589 5587 5585 5582 5578
5614 5619 5619 5625 5628 5629 5627 5629 5630 5631 5631 5631 5632 5632 5632 5630 5630 5630 5631 5630 5628 5626 5625 5624 5622 5620 5619 5617 5615 5612 5609 5606 5603 5600 5598 5595 5593 5590 5590 5590 5589 5587 5584 5581
5616 5616 5618 5623 5624 5627 5627 5627 5628 5629 5630 5631 5631 5631 5631 5630 5630 5630 5631 5630 5629 5626 5624 5623 5621 5620 5619 5617 5615 5612 5609 5607 5604 5601 5598 5596 5593 5591 5589 5587 5586 5586 5585 5581
5617 5618 5619 5623 5624 5624 5624 5624 5624 5625 5627 5628 5629 5630 5631 5631 5631 5631 5631 5630 5628 5626 5624 5623 5621 5620 5619 5617 5615 5612 5610 5607 5605 5602 5599 5597 5594 5592 5590 5588 5585 5584 5583 5581
5617 5619 5621 5621 5622 5622 5622 5623 5623 5624 5625 5626 5627 5630 5632 5633 5632 5631 5631 5630 5628 5626 5625 5623 5622 5621 5620 5618 5615 5613 5610 5608 5606 5603 5600 5598 5595 5593 5591 5588 5586 5583 5581 5579
5611 5615 5618 5619 5621 5622 5623 5624 5625 5626 5626 5627 5628 5630 5631 5632 5631 5631 5631 5630 5630 5628 5626 5625 5624 5623 5621 5619 5616 5614 5611 5609 5606 5604 5601 5599 5596 5593 5591 5588 5586 5583 5580 5578
5617 5620 5622 5624 5624 5623 5624 5626 5627 5627 5629 5630 5631 5631 5631 5631 5632 5632 5631 5630 5629 5627 5627 5626 5625 5623 5622 5620 5617 5614 5612 5609 5607 5604 5602 5599 5597 5594 5591 5588 5585 5582 5579 5576
5619 5622 5624 5626 5627 5627 5627 5627 5629 5630 5632 5632 5631 5631 5633 5634 5634 5634 5632 5630 5629 5628 5628 5629 5626 5624 5622 5620 5618 5615 5613 5610 5607 5604 5602 5599 5597 5594 5591 5588 5585 5582 5578 5574
5620 5624 5626 5627 5629 5629 5629 5630 5631 5632 5633 5633 5633 5633 5633 5634 5635 5634 5632 5632 5632 5633 5632 5630 5627 5625 5623 5622 5619 5617 5614 5611 5608 5605 5602 5600 5597 5594 5591 5588 5585 5581 5577 5573
5620 5624 5626 5628 5630 5631 5632 5633 5633 5633 5635 5635 5635 5636 5636 5636 5635 5634 5632 5633 5634 5634 5633 5631 5629 5627 5625 5623 5621 5618 5615 5612 5609 5606 5603 5600 5598 5595 5591 5588 5584 5580 5576 5571
5620 5624 5626 5628 5630 5631 5633 5635 5635 5636 5636 5637 5638 5638 5638 5636 5636 5635 5635 5637 5637 5636 5635 5633 5631 5629 5627 5625 5622 5619 5616 5613 5611 5608 5605 5601 5598 5595 5591 5587 5583 5579 5574 5569
5619 5623 5626 5628 5630 5632 5634 5636 5638 5639 5639 5640 5640 5640 5640 5640 5639 5638 5638 5639 5639 5638 5637 5635 5633 5631 5628 5626 5623 5621 5618 5615 5612 5609 5606 5602 5599 5595 5591 5587 5583 5577 5572 5566
5618 5622 5625 5628 5631 5632 5634 5638 5639 5641 5642 5643 5644 5644 5643 5641 5640 5642 5643 5643 5641 5640 5639 5637 5634 5631 5629 5627 5625 5622 5619 5616 5613 5610 5607 5603 5599 5595 5591 5586 5581 5576 5570 5564
5618 5622 5625 5627 5630 5634 5637 5638 5639 5641 5642 5643 5644 5645 5646 5646 5646 5646 5645 5645 5643 5641 5640 5638 5635 5632 5630 5628 5626 5623 5621 5618 5615 5612 5608 5604 5600 5595 5591 5585 5580 5574 5568 5562
5617 5621 5625 5629 5633 5636 5638 5640 5640 5641 5643 5643 5644 5646 5646 5647 5648 5647 5647 5646 5645 5643 5641 5639 5637 5634 5632 5630 5628 5625 5622 5619 5616 5612 5608 5604 5600 5595 5589 5584 5578 5572 5565 5558
5617 5621 5625 5630 5634 5638 5641 5642 5644 5645 5646 5647 5647 5648 5649 5649 5649 5648 5648 5647 5646 5644 5643 5641 5639 5636 5634 5632 5629 5626 5624 5621 5617 5613 5609 5604 5599 5594 5588 5582 5576 5569 5563 5556